Allentown, PA

11:52 AM EDT on August 19, 2017 (GMT -0400)
Allentown

Weather History for KXLL - February, 2013

Change the Weather History Date:

Thursday, February 14, 2013

  Actual Average (KABE) Record (KABE)
Temperature  
Mean Temperature 36 °F -  
Max Temperature 42 °F 38 °F 64 °F (1946)
Min Temperature 30 °F 21 °F -1 °F (1979)
Degree Days  
Heating Degree Days 29    
Moisture  
Dew Point 27 °F    
Average Humidity 75    
Maximum Humidity 100    
Minimum Humidity 42    
Precipitation  
Precipitation 0.00 in - - ()
Sea Level Pressure  
Sea Level Pressure 29.92 in    
Wind  
Wind Speed 3 mph (SW)    
Max Wind Speed 9 mph    
Max Gust Speed -    
Visibility 7 miles    
Events Fog    
Averages and records for this station are not official NWS values.
T = Trace of Precipitation, MM = Missing Value Source: NWS Daily Summary

Daily Weather History Graph

Daily Weather History Graph

Search for Another Location

Airport or City:

Trip Planner

Search our weather history database for the weather conditions in past years. The results will help you decide how hot, cold, wet, or windy it might be!

Date:

Astronomy

Feb. 14, 2013 Rise Set
Actual Time 6:56 AM EST 5:36 PM EST
Civil Twilight 6:28 AM EST 6:04 PM EST
Nautical Twilight 5:56 AM EST 6:36 PM EST
Astronomical Twilight 5:24 AM EST 7:07 PM EST
Moon 8:55 AM EST (2/14) 10:38 PM EST (2/14)
Length of Visible Light 11h 35m
Length of Day
10h 39m
Waxing Crescent, 21% of the Moon is Illuminated
Feb 14
Waxing Crescent
Feb 17
First Quarter
Feb 25
Full
Mar 4
Last Quarter
Mar 11
New

Hourly Weather History & Observations

Time (EST) Temp. Windchill Dew Point Humidity Pressure Visibility Wind Dir Wind Speed Gust Speed Precip Events Conditions
12:15 AM 32.0 °F - 32.0 °F 100% 29.74 in 1.5 mi Calm Calm - N/A   Mostly Cloudy
12:35 AM 32.0 °F - 30.2 °F 93% 29.74 in 1.5 mi Calm Calm - N/A   Scattered Clouds
12:55 AM 32.0 °F 28.7 °F 32.0 °F 100% 29.74 in 0.2 mi SSW 3.5 mph - N/A Fog Fog
1:15 AM 32.0 °F 28.7 °F 32.0 °F 100% 29.75 in 0.2 mi SSW 3.5 mph - N/A Fog Fog
1:35 AM 32.0 °F - 32.0 °F 100% 29.76 in 1.0 mi Calm Calm - N/A   Overcast
1:55 AM 32.0 °F - 32.0 °F 100% 29.77 in 2.0 mi Calm Calm - N/A   Mostly Cloudy
2:15 AM 32.0 °F - 32.0 °F 100% 29.79 in 2.5 mi Calm Calm - N/A   Scattered Clouds
2:35 AM 32.0 °F 28.7 °F 32.0 °F 100% 29.80 in 2.5 mi SSW 3.5 mph - N/A   Mostly Cloudy
2:55 AM 32.0 °F 28.7 °F 30.2 °F 93% 29.80 in 2.0 mi SSW 3.5 mph - N/A   Scattered Clouds
3:15 AM 32.0 °F 28.7 °F 30.2 °F 93% 29.80 in 1.8 mi SSW 3.5 mph - N/A   Mostly Cloudy
3:35 AM 32.0 °F - 32.0 °F 100% 29.81 in 1.8 mi Calm Calm - N/A   Mostly Cloudy
3:55 AM 32.0 °F 28.7 °F 30.2 °F 93% 29.82 in 2.5 mi SW 3.5 mph - N/A   Mostly Cloudy
4:15 AM 32.0 °F 28.7 °F 30.2 °F 93% 29.82 in 2.5 mi SW 3.5 mph - N/A   Mostly Cloudy
4:35 AM 32.0 °F 28.7 °F 30.2 °F 93% 29.83 in 2.0 mi SSW 3.5 mph - N/A   Scattered Clouds
4:55 AM 30.2 °F 25.4 °F 30.2 °F 100% 29.84 in 2.0 mi South 4.6 mph - N/A   Clear
5:15 AM 32.0 °F 28.7 °F 30.2 °F 93% 29.84 in 3.0 mi SSW 3.5 mph - N/A   Scattered Clouds
5:35 AM 30.2 °F 25.4 °F 28.4 °F 93% 29.86 in 3.0 mi SW 4.6 mph - N/A   Scattered Clouds
5:55 AM 30.2 °F 26.7 °F 28.4 °F 93% 29.86 in 3.0 mi SW 3.5 mph - N/A   Clear
6:55 AM 32.0 °F - 30.2 °F 93% 29.90 in 4.0 mi Calm Calm - N/A   Clear
7:15 AM 32.0 °F - 30.2 °F 93% 29.91 in 4.0 mi Calm Calm - N/A   Clear
7:35 AM 30.2 °F - 28.4 °F 93% 29.93 in 4.0 mi Calm Calm - N/A   Clear
7:55 AM 32.0 °F 28.7 °F 30.2 °F 93% 29.94 in 4.0 mi WNW 3.5 mph - N/A   Clear
8:15 AM 32.0 °F 28.7 °F 30.2 °F 93% 29.95 in 7.0 mi West 3.5 mph - N/A   Clear
8:35 AM 32.0 °F - 30.2 °F 93% 29.95 in 7.0 mi Calm Calm - N/A   Clear
8:55 AM 33.8 °F 30.8 °F 28.4 °F 81% 29.96 in 7.0 mi NW 3.5 mph - N/A   Clear
9:15 AM 33.8 °F 27.7 °F 28.4 °F 81% 29.96 in 10.0 mi NW 6.9 mph - N/A   Clear
9:35 AM 33.8 °F 30.8 °F 28.4 °F 81% 29.96 in 10.0 mi NNW 3.5 mph - N/A   Clear
9:55 AM 35.6 °F 30.7 °F 28.4 °F 75% 29.97 in 10.0 mi NNW 5.8 mph - N/A   Clear
10:15 AM 35.6 °F 31.7 °F 28.4 °F 75% 29.97 in 10.0 mi North 4.6 mph - N/A   Clear
10:55 AM 35.6 °F 31.7 °F 26.6 °F 70% 29.97 in 10.0 mi WNW 4.6 mph - N/A   Clear
11:15 AM 37.4 °F 34.9 °F 28.4 °F 70% 29.98 in 10.0 mi West 3.5 mph - N/A   Scattered Clouds
11:35 AM 39.2 °F - 28.4 °F 65% 29.98 in 10.0 mi Calm Calm - N/A   Mostly Cloudy
11:55 AM 37.4 °F 34.9 °F 26.6 °F 65% 29.97 in 10.0 mi WNW 3.5 mph - N/A   Scattered Clouds
12:15 PM 39.2 °F 35.0 °F 26.6 °F 61% 29.96 in 10.0 mi SW 5.8 mph - N/A   Scattered Clouds
12:35 PM 39.2 °F 35.9 °F 26.6 °F 61% 29.96 in 10.0 mi WSW 4.6 mph - N/A   Scattered Clouds
12:55 PM 39.2 °F 35.9 °F 28.4 °F 65% 29.96 in 10.0 mi West 4.6 mph - N/A   Clear
1:15 PM 41.0 °F 35.8 °F 26.6 °F 57% 29.96 in 10.0 mi SW 8.1 mph - N/A   Scattered Clouds
1:35 PM 41.0 °F 36.4 °F 26.6 °F 57% 29.96 in 10.0 mi WSW 6.9 mph - N/A   Clear
1:55 PM 41.0 °F 35.2 °F 26.6 °F 57% 29.96 in 10.0 mi West 9.2 mph - N/A   Clear
2:15 PM 41.0 °F 36.4 °F 28.4 °F 61% 29.96 in 10.0 mi WSW 6.9 mph - N/A   Clear
2:55 PM 42.8 °F 38.6 °F 26.6 °F 53% 29.96 in 10.0 mi West 6.9 mph - N/A   Clear
3:15 PM 42.8 °F 39.3 °F 26.6 °F 53% 29.96 in 10.0 mi WSW 5.8 mph - N/A   Clear
3:35 PM 42.8 °F 39.3 °F 26.6 °F 53% 29.95 in 10.0 mi SSW 5.8 mph - N/A   Clear
3:55 PM 42.8 °F 38.6 °F 21.2 °F 42% 29.95 in 10.0 mi SW 6.9 mph - N/A   Clear
4:15 PM 42.8 °F 40.1 °F 21.2 °F 42% 29.95 in 10.0 mi WSW 4.6 mph - N/A   Clear
4:35 PM 42.8 °F 41.1 °F 21.2 °F 42% 29.96 in 10.0 mi West 3.5 mph - N/A   Clear
4:55 PM 41.0 °F 39.0 °F 21.2 °F 45% 29.96 in 10.0 mi WSW 3.5 mph - N/A   Clear
5:15 PM 41.0 °F 38.0 °F 21.2 °F 45% 29.96 in 10.0 mi West 4.6 mph - N/A   Clear
5:35 PM 41.0 °F 39.0 °F 23.0 °F 49% 29.96 in 10.0 mi West 3.5 mph - N/A   Clear
5:55 PM 37.4 °F 34.9 °F 23.0 °F 56% 29.97 in 10.0 mi West 3.5 mph - N/A   Clear
6:15 PM 37.4 °F 34.9 °F 23.0 °F 56% 29.97 in 10.0 mi SSW 3.5 mph - N/A   Clear
6:35 PM 37.4 °F 33.8 °F 24.8 °F 60% 29.98 in 10.0 mi South 4.6 mph - N/A   Clear
6:55 PM 35.6 °F 32.8 °F 24.8 °F 65% 29.98 in 10.0 mi SSW 3.5 mph - N/A   Clear
7:15 PM 35.6 °F 31.7 °F 24.8 °F 65% 29.98 in 10.0 mi South 4.6 mph - N/A   Clear
7:35 PM 35.6 °F - 24.8 °F 65% 29.98 in 10.0 mi Calm Calm - N/A   Clear
7:55 PM 35.6 °F 32.8 °F 24.8 °F 65% 29.99 in 10.0 mi South 3.5 mph - N/A   Clear
8:15 PM 33.8 °F 30.8 °F 24.8 °F 70% 29.99 in 10.0 mi SSW 3.5 mph - N/A   Clear
8:35 PM 33.8 °F - 24.8 °F 70% 29.99 in 10.0 mi Calm Calm - N/A   Clear
8:55 PM 32.0 °F 28.7 °F 24.8 °F 75% 29.99 in 10.0 mi SSW 3.5 mph - N/A   Clear
9:15 PM 33.8 °F 30.8 °F 24.8 °F 70% 30.00 in 10.0 mi South 3.5 mph - N/A   Clear
9:35 PM 33.8 °F - 24.8 °F 70% 29.99 in 10.0 mi Calm Calm - N/A   Clear
10:15 PM 32.0 °F 28.7 °F 26.6 °F 80% 29.99 in 10.0 mi WSW 3.5 mph - N/A   Clear
10:55 PM 32.0 °F 27.5 °F 24.8 °F 75% 29.98 in 10.0 mi SSE 4.6 mph - N/A   Clear
11:15 PM 33.8 °F 29.6 °F 24.8 °F 70% 29.98 in 10.0 mi SSW 4.6 mph - N/A   Clear
11:35 PM 32.0 °F 27.5 °F 24.8 °F 75% 29.99 in 10.0 mi SW 4.6 mph - N/A   Clear
11:55 PM 33.8 °F 30.8 °F 24.8 °F 70% 29.99 in 10.0 mi SW 3.5 mph - N/A   Mostly Cloudy